Regional Weather Roundup
Issued by NWS

Home | Current Version | Previous Version | Text Only | Print | Product List | Glossary Off
Versions: 1 2 3 4 5 6 7 8 9 10 11 12 13 14 15 16 17 18 19 20 21 22 23 24 25 26 27 28 29 30 31 32 33 34 35 36 37 38 39 40 41 42 43 44 45 46 47 48 49 50

000
ASUS43 KDTX 282101
RWRMI
MICHIGAN HOURLY REGIONAL WEATHER ROUNDUP
NATIONAL WEATHER SERVICE DETROIT/PONTIAC MI
500 PM EDT THU JUL 28 2016

NOTE: "FAIR" INDICATES FEW OR NO CLOUDS BELOW 12,000 FEET WITH NO
SIGNIFICANT WEATHER AND/OR OBSTRUCTION TO VISIBILITY.

MIZ047>049-052>055-059>063-066>070-074>076-081>083-282200-
SOUTHEAST LOWER MICHIGAN

CITY           SKY/WX    TMP DP  RH WIND       PRES   REMARKS
ADRIAN         PTSUNNY   83  65  54 SE5       29.88F
ALMA           SUNNY     82  65  54 NE10      29.92F
ANN ARBOR      PTSUNNY   85  64  49 NE5       29.87F
BAD AXE        MOSUNNY   76  61  60 N8        29.94F
CARO           MOSUNNY   83  63  51 N5        29.91S
DETROIT CITY   MOSUNNY   84  64  50 E9        29.88S
DETROIT        PTSUNNY   86  63  45 CALM      29.87F
FLINT          PTSUNNY   86  62  44 E9        29.90S
GROSSE ILE     MOSUNNY   84  64  51 NE7       29.86F
HILLSDALE      PTSUNNY   83  64  53 N3        29.89F
HOWELL         PTSUNNY   82  63  52 NE3       29.90F

CITY           SKY/WX    TMP DP  RH WIND       PRES   REMARKS
JACKSON        MOSUNNY   85  64  49 N7        29.89F
LAMBERTVILLE   CLOUDY    83  67  58 E7        29.88S
LANSING        MOSUNNY   86  64  47 E6        29.90S
LAPEER         FAIR      82  59  45 NE7       29.91S
MASON          MOSUNNY   83  63  50 E3        29.90F
MONROE         CLOUDY    83  70  64 E5        29.86F
PONTIAC        PTSUNNY   83  62  49 N9        29.89F
PORT HOPE        N/A     72  65  78 N7        29.93F
PORT HURON     CLOUDY    79  63  57 N8        29.91R
TRI CITIES     SUNNY     78  66  66 NE15      29.94S
MIDLAND        FAIR      80  58  47 E9        29.93S
TROY           CLOUDY    86  57  37 NE7       29.90F
SAGINAW HB     SUNNY     79  64  61 N13       29.92S
$$
MIZ043>046-050>051-056>058-064>065-071>073-077>080-282200-
SOUTHWEST LOWER MICHIGAN

CITY           SKY/WX    TMP DP  RH WIND       PRES   REMARKS
BATTLE CREEK   MOSUNNY   81  64  56 NE7       29.89F
BENTON HARBOR  CLOUDY    83  67  58 NE6       29.88R
BIG RAPIDS     PTSUNNY   79  66  64 E5        29.92F
COLDWATER      MOSUNNY   83  65  55 E7        29.88F
FREMONT        HVY RAIN  67  67 100 W13G26    29.97R
HOLLAND        CLOUDY    76  67  73 N7G21     29.89R THUNDER
GRAND RAPIDS   PTSUNNY   83  65  54 E9        29.89F
IONIA          PTSUNNY   79  64  59 NE9       29.89F
KALAMAZOO      MOSUNNY   83  65  54 E7        29.88F
LUDINGTON      CLOUDY    77  66  69 NE7       29.92S
MARSHALL       SUNNY     84  65  52 E7        29.88F
MOUNT PLEASANT SUNNY     83  60  45 E10       29.92F
MUSKEGON       PTSUNNY   74  69  85 N12G18    29.93R
SOUTH HAVEN    PTSUNNY   77  69  77 S7        29.89S
$$
MIZ016>042-282200-
NORTHERN LOWER MICHIGAN

CITY           SKY/WX    TMP DP  RH WIND       PRES   REMARKS
ALPENA         MOSUNNY   79  56  45 E7        29.97S
BEAVER ISLAND  MOSUNNY   77  56  48 N9        29.99S
BELLAIRE       PTSUNNY   81  57  44 N6        29.95S
CADILLAC       CLOUDY    74  61  64 E7        29.96F
CHARLEVOIX     SUNNY     75  63  65 NW8       30.00S
FRANKFORT      CLOUDY    72  62  69 N8        29.95S
GAYLORD        CLOUDY    78  55  44 NE9       29.98S
GRAYLING       PTSUNNY   78  59  51 CALM      29.97S
HARBOR SPRINGS MOSUNNY   79  56  44 NE7G17    29.97S
HOUGHTON LAKE  MOSUNNY   80  60  50 E5        29.97S
MANISTEE       CLOUDY    78  63  59 VRB5      29.93F HAZE
OSCODA         PTSUNNY   76  60  56 NE12      29.95S
PELLSTON       SUNNY     79  55  43 E13G18    29.98S
ROGERS CITY    SUNNY     73  59  60 N7        29.99F
TRAVERSE CITY  PTSUNNY   78  60  53 N8        29.94S
$$
MIZ007>008-015-282200-
EASTERN UPPER MICHIGAN

CITY           SKY/WX    TMP DP  RH WIND       PRES   REMARKS
KINROSS        SUNNY     75  54  47 N13       30.00R
MACKINAC ISLAN SUNNY     75  56  50 CALM      29.99S
S. S. MARIE    SUNNY     77  55  46 NW9       29.99R
$$
MIZ004>006-011>014-085-282200-
CENTRAL UPPER MICHIGAN

CITY           SKY/WX    TMP DP  RH WIND       PRES   REMARKS
ESCANABA       CLOUDY    75  55  50 N8G16     29.99S
MENOMINEE        N/A    N/A N/A N/A MISG        N/A
SAWYER-GWINN   SUNNY     66  52  59 N15       30.08R
$$
MIZ001>003-009>011-084-282200-
WESTERN UPPER MICHIGAN

CITY           SKY/WX    TMP DP  RH WIND       PRES   REMARKS
IRON MOUNTAIN  CLOUDY    74  52  46 NE12G21   30.02R
HOUGHTON       MOSUNNY   70  53  54 VRB3      30.09S
COPPER HARBOR    N/A     66  54  65 CALM      30.09S
IRONWOOD       MOSUNNY   73  57  56 NE8G18    30.04S
$$

ABBREVIATIONS USED IN REMARKS
   TC - TEMPERATURE IN CELSIUS
  WCI - WIND CHILL INDEX
   HX - HEAT INDEX
  VSB - VISIBILITY





USA.gov is the U.S. government's official web portal to all federal, state and local government web resources and services.